    Orbital elements:
    2019 CY4
    Epoch 2019 Apr. 27.0 TT = JDT 2458600.5                 MPC
    M 359.94189              (2000.0)            P               Q
    n   0.00301424     Peri.   87.22920     -0.80342421     -0.51722458
    a  47.4625624      Node    61.45938     +0.31799912     -0.79154140
    e   0.7873998      Incl.   19.61736     +0.50337471     -0.32548571
    P 327              H   11.1           G   0.15           U   0
    Residuals in seconds of arc
    131225 F51  0.1-  0.2+    170103 F51  0.0   0.0     190117 F51  0.0   0.1-
    141117 F51  0.2+  0.1+    170116 F51  0.3-  0.1-    190117 F51  0.1-  0.1-
    141117 F51  0.1+  0.1+    170116 F51  0.3-  0.2+    190117 F51  0.1+  0.1-
    141117 F51  0.2-  0.1-    170116 F51  0.1+  0.0     190117 F51  0.1+  0.1-
    141117 F51  0.1+  0.1+    170116 F51  0.1+  0.1-    190120 F51  0.0   0.2-
    141121 F51  0.1-  0.0     170129 F51  0.0   0.2-    190120 F51  0.1+  0.1-
    141121 F51  0.0   0.2-    170129 F51  0.1+  0.1-    190120 F51  0.1+  0.0
    141203 F51  0.0   0.0     170129 F51  0.0   0.0     190120 F51  0.0   0.0
    141203 F51  0.1+  0.1-    170129 F51  0.1+  0.0     190127 F51  0.2+  0.2-
    141203 F51  0.6-  0.0     170201 F51  0.1+  0.0     190127 F51  0.1+  0.1-
    141213 F51  0.3-  0.1+    170201 F51  0.0   0.1+    190127 F51  0.0   0.3-
    141213 F51  0.6+  0.0     170201 F51  0.1+  0.1-    190127 F51  0.2+  0.0
    141213 F51  0.0   0.7+    170201 F51  0.1+  0.2+    190206 F51  0.1+  0.0
    141221 F51  0.1-  0.0     170318 F51  0.1+  0.0     190208 F51  0.3+  0.1-
    141221 F51  0.0   0.1-    170318 F51  0.1+  0.0     190208 F51  0.2-  0.1+
    141221 F51  0.0   0.0     170318 F51  0.0   0.0     190208 F51  0.2+  0.1-
    141221 F51  0.0   0.0     170318 F51  0.0   0.0     190208 F51  0.1+  0.1-
    151116 F51  0.1-  0.0     171119 F51  0.0   0.0     190209 F52  0.1+  0.2-
    151116 F51  0.1-  0.1-    171119 F51  0.0   0.1+    190209 F52  0.1+  0.0
    151116 F51  0.2+  0.3-    171119 F51  0.1-  0.0     190209 F52  0.2+  0.2-
    151203 F51  0.0   0.0     171213 F51  0.0   0.1-    190211 I52  0.4-  0.1-
    151203 F51  0.1-  0.0     171213 F51  0.1-  0.0     190211 I52  0.1-  0.1-
    151203 F51  0.1-  0.0     171213 F51  0.0   0.1-    190211 I52  0.2-  0.3+
    151203 F51  0.3-  0.6-    171213 F51  0.0   0.0     190211 I52  0.4-  0.1-
    151204 F51  0.0   0.1+    180120 F51  0.1+  0.0     190212 I52  0.1-  0.3-
    151204 F51  0.0   0.1+    180120 F51  0.0   0.0     190212 I52  0.0   0.4-
    151204 F51  0.1+  0.1-    180120 F51  0.0   0.0     190212 I52  0.5+  0.4-
    151204 F51  0.0   0.1+    180123 F51  0.1-  0.0     190213 L01  0.1-  0.3+
    160104 F51  0.0   0.0     180123 F51  0.0   0.0     190213 L01  0.2+  0.6+
    160104 F51  0.0   0.0     180123 F51  0.0   0.0     190213 L01  0.1-  0.4+
    160104 F51  0.0   0.0     180123 F51  0.0   0.0     190408 F51  0.0   0.1+
    160104 F51  0.0   0.0     181218 F51  0.1-  0.0     190408 F51  0.0   0.1+
    160203 F51  0.0   0.0     181218 F51  0.1-  0.0     190408 F51  0.1+  0.0
    160203 F51  0.2+  0.1-    181218 F51  0.3+  0.3+    190408 F51  0.0   0.0
    160203 F51  0.1+  0.1-    181223 F51  0.1+  0.0     190515 F51  0.2+  0.0
    160203 F51  0.3+  0.7+    181223 F51  0.1-  0.0     190515 F51  0.1-  0.1+
    161106 F51  0.0   0.1+    181223 F51  0.0   0.0     190515 F51  0.3-  0.1+
    161106 F51  0.0   0.0     181223 F51  0.1-  0.0     190515 F51  0.3-  0.2-
    161106 F51  0.1-  0.0     190110 F51  0.0   0.1-    190522 F51  0.1-  0.3-
    161106 F51  0.0   0.2+    190110 F51  0.1-  0.1-    190522 F51  0.1-  0.1-
    161124 F51  0.2+  0.1+    190110 F51  0.0   0.0     190522 F51  0.5-  0.1+
    161124 F51  0.1+  0.1-    190110 F51  0.1-  0.0     190522 F51  0.8-  0.4+
    161124 F51  0.1-  0.2-    190115 F51  0.1-  0.1-    190525 291  0.9+  0.4+
    161124 F51  0.5-  0.0     190115 F51  0.1+  0.1-    190525 291  0.2+  0.3+
    170103 F51  0.0   0.0     190116 F51  0.1-  0.2-    190525 291  0.4-  0.5+
    170103 F51  0.0   0.0     190116 F51  0.1-  0.2-
    170103 F51  0.0   0.0     190116 F51  0.0   0.1-
    
    Ephemeris:
    2019 CY4                 a,e,i = 47.46, 0.79, 20                 q = 10.0905
    Date    TT    R. A. (2000) Decl.     Delta      r    Elong.  Phase     V
    2019 05 30    10 11 18.9 +31 47 48  10.2883 10.0908    76.0     5.6    21.6
    ...
    2019 06 14    10 15 22.6 +31 00 53  10.5027 10.0915    63.6     5.2    21.7
    ...
    2019 06 22    10 18 02.1 +30 34 37  10.6079 10.0921    57.1     4.9    21.7
    ...
    2019 06 28    10 20 13.6 +30 14 32  10.6814 10.0926    52.4     4.6    21.7
    2019 06 29    10 20 36.5 +30 11 10  10.6932 10.0927    51.6     4.5    21.7
    2019 06 30    10 20 59.6 +30 07 47  10.7048 10.0928    50.8     4.5    21.7
    ...
    2019 07 06    10 23 23.5 +29 47 26  10.7712 10.0935    46.1     4.2    21.7
    ...
    2019 07 14    10 26 47.8 +29 20 10  10.8505 10.0945    40.1     3.7    21.6
    ...
    2019 07 29    10 33 42.5 +28 29 20  10.9672 10.0968    29.6     2.8    21.6
    
    A. U. Tomatic                (C) Copyright 2019 MPC           M.P.E.C. 2019-M106
    


    Read MPEC 2019-M105 Read MPEC 2019-M107


    MPEC number:

    Enter an MPEC number in one of the following forms:

    • 1997-B01 (the full form)
    • J97B01 (the packed version of the full form)
    • B01 (the abbreviated form)